When you browse on this site, cookies collect data to enhance your experience and personalize the content and advertising you see.
Visit our Privacy Policy to learn more. By continuing to use the site, you agree to this use of cookies and data.
  • In Romania
  • List of Countries
  • For 7 days
  • Water Temperature
  • Weather Map
  • Weather Widgets
  • user-avatar
    Login

    Hourly Weather Aosta

    Today, 11 November, Monday

    Time Temperature Precipitation Wind Pressure Humidity
    00:00 -2°C° 0 mm 3 mps 668 mmHg 78%
    01:00 -2°C° 0 mm 2 mps 668 mmHg 79%
    02:00 -2°C° 0 mm 2 mps 668 mmHg 80%
    03:00 -2°C° 0 mm 2 mps 668 mmHg 80%
    04:00 -2°C° 0 mm 2 mps 668 mmHg 81%
    05:00 -2°C° 0 mm 2 mps 668 mmHg 81%
    06:00 -2°C° 0 mm 2 mps 668 mmHg 81%
    07:00 +1°C° 0 mm 2 mps 668 mmHg 81%
    08:00 +2°C° 0 mm 2 mps 668 mmHg 82%
    09:00 +3°C° 0 mm 2 mps 667 mmHg 82%
    10:00 +4°C° 0 mm 2 mps 667 mmHg 83%
    11:00 +4°C° 0 mm 2 mps 667 mmHg 85%
    12:00 +5°C° 0 mm 2 mps 667 mmHg 86%
    13:00 +5°C° 0 mm 2 mps 666 mmHg 88%
    14:00 +4°C° 0 mm 2 mps 665 mmHg 91%
    15:00 +4°C° 0 mm 2 mps 665 mmHg 93%
    16:00 +4°C° 0.2 mm 1 mps 665 mmHg 94%
    17:00 +4°C° 0.2 mm 1 mps 665 mmHg 95%
    18:00 +3°C° 0.2 mm 1 mps 665 mmHg 95%
    19:00 +3°C° 0.2 mm 1 mps 665 mmHg 95%
    20:00 +3°C° 0.2 mm 1 mps 665 mmHg 94%
    21:00 +3°C° 0.2 mm 1 mps 665 mmHg 94%
    22:00 +2°C° 0 mm 1 mps 665 mmHg 93%
    23:00 +2°C° 0 mm 1 mps 665 mmHg 92%

    Tomorrow, 12 November, Tuesday

    Time Temperature Precipitation Wind Pressure Humidity
    00:00 -1°C° 0 mm 2 mps 664 mmHg 92%
    01:00 -1°C° 0 mm 2 mps 664 mmHg 90%
    02:00 -2°C° 0 mm 2 mps 664 mmHg 89%
    03:00 -2°C° 0 mm 2 mps 664 mmHg 88%
    04:00 -2°C° 0 mm 2 mps 664 mmHg 88%
    05:00 -2°C° 0 mm 2 mps 664 mmHg 87%
    06:00 -3°C° 0 mm 2 mps 664 mmHg 86%
    07:00 -1°C° 0 mm 2 mps 664 mmHg 85%
    08:00 +1°C° 0 mm 2 mps 664 mmHg 83%
    09:00 +2°C° 0 mm 2 mps 664 mmHg 82%
    10:00 +3°C° 0 mm 2 mps 664 mmHg 80%
    11:00 +2°C° 0 mm 3 mps 663 mmHg 78%
    12:00 +3°C° 0 mm 3 mps 663 mmHg 75%
    13:00 +2°C° 0 mm 3 mps 662 mmHg 76%
    14:00 +1°C° 0 mm 3 mps 661 mmHg 76%
    15:00 0°C° 0 mm 3 mps 661 mmHg 76%
    16:00 -1°C° 0 mm 3 mps 660 mmHg 74%
    17:00 -4°C° 0 mm 3 mps 660 mmHg 72%
    18:00 -5°C° 0 mm 3 mps 660 mmHg 70%
    19:00 -5°C° 0 mm 3 mps 660 mmHg 69%
    20:00 -5°C° 0 mm 3 mps 659 mmHg 69%
    21:00 -5°C° 0 mm 3 mps 659 mmHg 69%
    22:00 -6°C° 0 mm 3 mps 659 mmHg 70%
    23:00 -6°C° 0 mm 3 mps 659 mmHg 71%

    Day after tomorrow, 13 November, Wednesday

    Time Temperature Precipitation Wind Pressure Humidity
    00:00 -5°C° 0 mm 2 mps 659 mmHg 72%
    01:00 -5°C° 0 mm 2 mps 659 mmHg 73%
    02:00 -5°C° 0 mm 2 mps 659 mmHg 74%
    03:00 -5°C° 0 mm 2 mps 658 mmHg 75%
    04:00 -5°C° 0 mm 2 mps 658 mmHg 72%
    05:00 -5°C° 0 mm 2 mps 658 mmHg 69%
    06:00 -5°C° 0 mm 2 mps 658 mmHg 67%
    07:00 -3°C° 0 mm 2 mps 659 mmHg 64%
    08:00 -1°C° 0 mm 2 mps 659 mmHg 61%
    09:00 +2°C° 0 mm 2 mps 660 mmHg 58%
    10:00 +3°C° 0 mm 2 mps 660 mmHg 57%
    11:00 +4°C° 0 mm 2 mps 660 mmHg 56%
    12:00 +5°C° 0 mm 2 mps 660 mmHg 55%
    13:00 +4°C° 0 mm 2 mps 659 mmHg 59%
    14:00 +2°C° 0 mm 2 mps 659 mmHg 64%
    15:00 +1°C° 0 mm 2 mps 659 mmHg 68%
    16:00 -1°C° 0 mm 2 mps 659 mmHg 62%
    17:00 -2°C° 0 mm 2 mps 660 mmHg 56%
    18:00 0°C° 0 mm 1 mps 660 mmHg 50%
    19:00 0°C° 0 mm 1 mps 660 mmHg 48%
    20:00 0°C° 0 mm 1 mps 660 mmHg 45%
    21:00 -1°C° 0 mm 1 mps 660 mmHg 42%
    22:00 -1°C° 0 mm 1 mps 660 mmHg 44%
    23:00 -3°C° 0 mm 2 mps 660 mmHg 46%

    14 November, Thursday

    Time Temperature Precipitation Wind Pressure Humidity
    00:00 -3°C° 0 mm 2 mps 660 mmHg 48%
    01:00 -4°C° 0 mm 2 mps 660 mmHg 49%
    02:00 -4°C° 0 mm 2 mps 660 mmHg 51%
    03:00 -4°C° 0 mm 2 mps 660 mmHg 53%
    04:00 -4°C° 0 mm 2 mps 660 mmHg 54%
    05:00 -4°C° 0 mm 2 mps 660 mmHg 55%
    06:00 -4°C° 0 mm 2 mps 660 mmHg 57%
    07:00 -3°C° 0 mm 2 mps 660 mmHg 59%
    08:00 -2°C° 0 mm 3 mps 661 mmHg 62%
    09:00 -1°C° 0 mm 3 mps 661 mmHg 64%
    10:00 0°C° 0 mm 3 mps 661 mmHg 68%
    11:00 0°C° 0 mm 3 mps 661 mmHg 71%
    12:00 0°C° 0 mm 4 mps 660 mmHg 74%
    13:00 -1°C° 0 mm 4 mps 660 mmHg 78%
    14:00 -1°C° 0 mm 4 mps 659 mmHg 82%
    15:00 -1°C° 0 mm 4 mps 659 mmHg 87%
    16:00 -1°C° 0.6 mm 4 mps 658 mmHg 89%
    17:00 -1°C° 0.6 mm 4 mps 658 mmHg 91%
    18:00 0°C° 0.6 mm 3 mps 658 mmHg 93%
    19:00 -1°C° 3 mm 4 mps 657 mmHg 94%
    20:00 -1°C° 3 mm 4 mps 657 mmHg 94%
    21:00 0°C° 3 mm 4 mps 657 mmHg 95%
    22:00 0°C° 4.7 mm 4 mps 657 mmHg 95%
    23:00 +1°C° 4.7 mm 3 mps 657 mmHg 95%

    15 November, Friday

    Time Temperature Precipitation Wind Pressure Humidity
    00:00 +1°C° 4.7 mm 3 mps 657 mmHg 96%
    01:00 0°C° 0.7 mm 3 mps 657 mmHg 96%
    02:00 0°C° 0.7 mm 3 mps 658 mmHg 95%
    03:00 +1°C° 0.7 mm 2 mps 658 mmHg 95%
    04:00 +1°C° 0.3 mm 2 mps 658 mmHg 95%
    05:00 0°C° 0.3 mm 3 mps 658 mmHg 95%
    06:00 +1°C° 0.3 mm 3 mps 659 mmHg 95%
    07:00 +1°C° 0.3 mm 3 mps 659 mmHg 95%
    08:00 +2°C° 0.3 mm 2 mps 660 mmHg 94%
    09:00 +3°C° 0.3 mm 2 mps 660 mmHg 94%
    10:00 +3°C° 0.2 mm 2 mps 660 mmHg 93%
    11:00 +3°C° 0.2 mm 2 mps 660 mmHg 92%
    12:00 +3°C° 0.2 mm 3 mps 660 mmHg 92%
    13:00 +3°C° 0.1 mm 2 mps 660 mmHg 93%
    14:00 +2°C° 0.1 mm 2 mps 660 mmHg 93%
    15:00 +2°C° 0.1 mm 2 mps 660 mmHg 94%
    16:00 -1°C° 0 mm 2 mps 660 mmHg 93%
    17:00 -2°C° 0 mm 2 mps 660 mmHg 92%
    18:00 -3°C° 0 mm 2 mps 660 mmHg 91%
    19:00 -3°C° 0 mm 2 mps 661 mmHg 91%
    20:00 -4°C° 0 mm 2 mps 661 mmHg 91%
    21:00 -4°C° 0 mm 2 mps 661 mmHg 91%
    22:00 -3°C° 0 mm 2 mps 662 mmHg 90%
    23:00 -3°C° 0 mm 2 mps 662 mmHg 90%

    16 November, Saturday

    Time Temperature Precipitation Wind Pressure Humidity
    00:00 -3°C° 0 mm 2 mps 662 mmHg 89%
    01:00 -3°C° 0 mm 2 mps 663 mmHg 90%
    02:00 -3°C° 0 mm 2 mps 663 mmHg 91%
    03:00 -3°C° 0 mm 2 mps 663 mmHg 93%
    04:00 -4°C° 0.1 mm 2 mps 664 mmHg 93%
    05:00 -4°C° 0.1 mm 2 mps 664 mmHg 94%
    06:00 -4°C° 0.1 mm 2 mps 665 mmHg 94%
    07:00 -3°C° 0.1 mm 2 mps 665 mmHg 94%
    08:00 -2°C° 0.1 mm 2 mps 666 mmHg 93%
    09:00 -1°C° 0.1 mm 2 mps 666 mmHg 93%
    10:00 +1°C° 0.1 mm 2 mps 666 mmHg 91%
    11:00 +2°C° 0.1 mm 2 mps 666 mmHg 89%
    12:00 +2°C° 0.1 mm 2 mps 666 mmHg 87%
    13:00 +2°C° 0 mm 2 mps 666 mmHg 89%
    14:00 +1°C° 0 mm 2 mps 665 mmHg 91%
    15:00 +1°C° 0 mm 2 mps 665 mmHg 93%
    16:00 -1°C° 0 mm 2 mps 665 mmHg 89%
    17:00 -2°C° 0 mm 2 mps 665 mmHg 85%
    18:00 -3°C° 0 mm 2 mps 665 mmHg 81%
    19:00 -3°C° 0 mm 2 mps 664 mmHg 82%
    20:00 -2°C° 0 mm 2 mps 664 mmHg 84%
    21:00 -2°C° 0 mm 2 mps 664 mmHg 85%
    22:00 -2°C° 0.2 mm 2 mps 663 mmHg 87%
    23:00 -1°C° 0.2 mm 2 mps 662 mmHg 89%
    Show more